Henry Tift Myers AP, Tifton,, GA

1:50 PM EST on December 14, 2019 (GMT -0500)
Myers

Weather History for KTMA - October, 2019

Change the Weather History Date:

Tuesday, October 8, 2019

  Actual Average Record
Temperature  
Mean Temperature - -  
Max Temperature - 81 °F 90 °F (2016)
Min Temperature - 58 °F 55 °F (2015)
Moisture  
Dew Point -    
Average Humidity    
Maximum Humidity    
Minimum Humidity    
Precipitation  
Precipitation 0.00 in - - ()
Sea Level Pressure  
Sea Level Pressure 29.96 in    
Wind  
Wind Speed 2 mph ()    
Max Wind Speed 12 mph    
Max Gust Speed 16 mph    
Visibility 9.3 miles    
Events      
Averages and records for this station are not official NWS values.
T = Trace of Precipitation, MM = Missing Value Source: Averaged Metar Reports

Daily Weather History Graph

Daily Weather History Graph

Search for Another Location

Airport or City:

Astronomy

Oct. 08, 2019 Rise Set
Actual Time 7:32 AM EDT 7:10 PM EDT
Civil Twilight 7:07 AM EDT 7:34 PM EDT
Nautical Twilight 6:39 AM EDT 8:02 PM EDT
Astronomical Twilight 6:11 AM EDT 8:31 PM EDT
Moon 4:46 PM EDT (10/8) 2:45 AM EDT (10/8)
Length of Visible Light 12h 27m
Length of Day
11h 38m
Waxing Gibbous, 77% of the Moon is Illuminated
Oct 8
Waxing Gibbous
Oct 13
Full
Oct 21
Last Quarter
Oct 27
New
Nov 4
First Quarter

Hourly Weather History & Observations

Time (EDT) Temp. Dew Point Humidity Pressure Visibility Wind Dir Wind Speed Gust Speed Precip Events Conditions
12:15 AM - - N/A% 29.97 in 10.0 mi Calm Calm - N/A   Clear
12:35 AM - - N/A% 29.97 in 10.0 mi Calm Calm - N/A   Clear
12:55 AM - - N/A% 29.96 in 10.0 mi Calm Calm - N/A   Clear
1:15 AM - - N/A% 29.96 in 10.0 mi Calm Calm - N/A   Clear
1:35 AM - - N/A% 29.95 in 10.0 mi Calm Calm - N/A   Clear
1:55 AM - - N/A% 29.95 in 7.0 mi Calm Calm - N/A   Clear
2:15 AM - - N/A% 29.96 in 10.0 mi Calm Calm - N/A   Clear
2:35 AM - - N/A% 29.96 in 7.0 mi North 3.5 mph - N/A   Clear
2:55 AM - - N/A% 29.96 in 10.0 mi NNW 3.5 mph - N/A   Clear
3:15 AM - - N/A% 29.95 in 7.0 mi North 3.5 mph - N/A   Clear
3:35 AM - - N/A% 29.95 in 10.0 mi North 3.5 mph - N/A   Clear
3:55 AM - - N/A% 29.95 in 7.0 mi Calm Calm - N/A   Clear
4:15 AM - - N/A% 29.95 in 7.0 mi Calm Calm - N/A   Clear
4:35 AM - - N/A% 29.94 in 7.0 mi Calm Calm - N/A   Clear
4:55 AM - - N/A% 29.95 in 10.0 mi Calm Calm - N/A   Clear
5:15 AM - - N/A% 29.95 in 7.0 mi NNE 3.5 mph - N/A   Clear
5:35 AM - - N/A% 29.95 in 7.0 mi Calm Calm - N/A   Clear
5:55 AM - - N/A% 29.95 in 5.0 mi Calm Calm - N/A   Haze
6:15 AM - - N/A% 29.95 in 7.0 mi Calm Calm - N/A   Clear
6:35 AM - - N/A% 29.95 in 7.0 mi Calm Calm - N/A   Clear
6:55 AM - - N/A% 29.96 in 5.0 mi Calm Calm - N/A   Haze
7:15 AM - - N/A% 29.96 in 7.0 mi Calm Calm - N/A   Clear
7:35 AM - - N/A% 29.96 in 7.0 mi Calm Calm - N/A   Clear
7:55 AM - - N/A% 29.96 in 7.0 mi NNE 3.5 mph - N/A   Clear
8:15 AM - - N/A% 29.96 in 10.0 mi Calm Calm - N/A   Clear
8:35 AM - - N/A% 29.97 in 10.0 mi Calm Calm - N/A   Clear
8:55 AM - - N/A% 29.97 in 10.0 mi North 4.6 mph - N/A   Scattered Clouds
9:15 AM - - N/A% 29.98 in 10.0 mi NE 4.6 mph - N/A   Mostly Cloudy
9:35 AM - - N/A% 29.98 in 7.0 mi North 5.8 mph - N/A   Overcast
9:55 AM - - N/A% 29.99 in 10.0 mi NNE 6.9 mph - N/A   Overcast
10:15 AM - - N/A% 30.00 in 10.0 mi NNE 6.9 mph - N/A   Mostly Cloudy
10:35 AM - - N/A% 30.00 in 10.0 mi NNE 4.6 mph - N/A   Clear
10:55 AM - - N/A% 30.00 in 10.0 mi NNE 9.2 mph - N/A   Scattered Clouds
11:15 AM - - N/A% 30.00 in 10.0 mi NNE 9.2 mph - N/A   Clear
11:35 AM - - N/A% 30.00 in 10.0 mi NNE 8.1 mph 16.1 mph N/A   Clear
11:55 AM - - N/A% 30.00 in 10.0 mi NE 6.9 mph - N/A   Scattered Clouds
12:15 PM - - N/A% 29.99 in 10.0 mi NE 8.1 mph - N/A   Scattered Clouds
12:35 PM - - N/A% 29.98 in 10.0 mi NNE 9.2 mph - N/A   Clear
12:55 PM - - N/A% 29.98 in 10.0 mi NE 6.9 mph - N/A   Clear
1:15 PM - - N/A% 29.98 in 10.0 mi North 5.8 mph - N/A   Clear
1:35 PM - - N/A% 29.97 in 10.0 mi Calm Calm - N/A   Clear
1:55 PM - - N/A% 29.96 in 10.0 mi NNE 9.2 mph - N/A   Scattered Clouds
2:15 PM - - N/A% 29.95 in 10.0 mi NNE 6.9 mph - N/A   Mostly Cloudy
2:35 PM - - N/A% 29.94 in 10.0 mi NE 11.5 mph 16.1 mph N/A   Overcast
2:55 PM - - N/A% 29.94 in 10.0 mi NE 6.9 mph - N/A   Mostly Cloudy
3:15 PM - - N/A% 29.93 in 10.0 mi NNE 5.8 mph - N/A   Mostly Cloudy
3:35 PM - - N/A% 29.93 in 10.0 mi NE 6.9 mph - N/A   Scattered Clouds
3:55 PM - - N/A% 29.92 in 10.0 mi ENE 8.1 mph - N/A   Scattered Clouds
4:15 PM - - N/A% 29.93 in 10.0 mi ENE 5.8 mph - N/A   Scattered Clouds
4:35 PM - - N/A% 29.92 in 10.0 mi NNE 6.9 mph - N/A   Scattered Clouds
4:55 PM - - N/A% 29.92 in 10.0 mi North 4.6 mph - N/A   Scattered Clouds
5:15 PM - - N/A% 29.92 in 10.0 mi ENE 3.5 mph - N/A   Mostly Cloudy
5:35 PM - - N/A% 29.92 in 10.0 mi NE 4.6 mph - N/A   Scattered Clouds
5:55 PM - - N/A% 29.92 in 10.0 mi NNE 3.5 mph - N/A   Clear
6:15 PM - - N/A% 29.92 in 10.0 mi North 4.6 mph - N/A   Scattered Clouds
6:35 PM - - N/A% 29.93 in 10.0 mi Calm Calm - N/A   Clear
6:55 PM - - N/A% 29.93 in 10.0 mi NNE 3.5 mph - N/A   Clear
7:15 PM - - N/A% 29.93 in 10.0 mi Calm Calm - N/A   Clear
7:35 PM - - N/A% 29.93 in 10.0 mi Calm Calm - N/A   Clear
7:55 PM - - N/A% 29.94 in 10.0 mi Calm Calm - N/A   Clear
8:15 PM - - N/A% 29.95 in 10.0 mi Calm Calm - N/A   Clear
8:35 PM - - N/A% 29.95 in 10.0 mi Calm Calm - N/A   Clear
8:55 PM - - N/A% 29.96 in 10.0 mi Calm Calm - N/A   Clear
9:15 PM - - N/A% 29.96 in 10.0 mi Calm Calm - N/A   Clear
9:35 PM - - N/A% 29.97 in 10.0 mi Calm Calm - N/A   Clear
9:55 PM - - N/A% 29.98 in 10.0 mi Calm Calm - N/A   Clear
10:15 PM - - N/A% 29.98 in 10.0 mi Calm Calm - N/A   Clear
10:35 PM - - N/A% 29.98 in 10.0 mi ESE 3.5 mph - N/A   Mostly Cloudy
10:55 PM - - N/A% 29.99 in 10.0 mi Calm Calm - N/A   Mostly Cloudy
11:15 PM - - N/A% 30.00 in 10.0 mi Calm Calm - N/A   Scattered Clouds
11:35 PM - - N/A% 30.00 in 10.0 mi SE 4.6 mph - N/A   Clear
11:55 PM - - N/A% 30.00 in 10.0 mi SSE 4.6 mph - N/A   Clear